Regional Weather Roundup
Issued by NWS

Home | Current Version | Previous Version | Text Only | Print | Product List | Glossary On
Versions: 1 2 3 4 5 6 7 8 9 10 11 12 13 14 15 16 17 18 19 20 21 22 23 24 25 26 27 28 29 30 31 32 33 34 35 36 37 38 39 40 41 42 43 44 45 46 47 48 49 50
000
ASUS43 KLMK 032010
RWRKY
KENTUCKY REGIONAL WEATHER ROUNDUP
NATIONAL WEATHER SERVICE LOUISVILLE KY
400 PM EDT FRI JUL 03 2015

NOTE "FAIR" INDICATES FEW OR NO CLOUDS BELOW 12,000 FEET
WITH NO SIGNIFICANT WEATHER AND/OR OBSTRUCTIONS TO VISIBILITY.

KYZ001>023-026-027-061>063-070>075-032100-
WESTERN AND SOUTH CENTRAL KENTUCKY

CITY           SKY/WX    TMP DP  RH WIND       PRES   REMARKS
PADUCAH        PTSUNNY   82  68  62 SW9       29.87S
HENDERSON      MOSUNNY   82  70  65 NW10G16   29.84S
OWENSBORO      PTSUNNY   83  71  66 NW10      29.84F
HOPKINSVILLE   CLOUDY    80  71  73 SW14      29.87F
BOWLING GREEN  MOSUNNY   82  70  66 SW16      29.84F
GLASGOW        PTSUNNY   78  70  74 SW13      29.85F
$$

KYZ024-025-028>034-038-045-046-053-032100-
NORTH CENTRAL KENTUCKY

CITY           SKY/WX    TMP DP  RH WIND       PRES   REMARKS
LOUISVILLE/SDF TSTM      72  69  90 N8        29.85F FOG
LOUISVILLE/LOU TSTM      73  71  93 NW15      29.86F FOG
FORT KNOX      TSTM      73  70  88 NW6       29.84F
$$

KYZ035>037-039>044-047>052-055>060-089>105-032100-
NORTHEAST KENTUCKY

CITY           SKY/WX    TMP DP  RH WIND       PRES   REMARKS
LEXINGTON      TSTM      72  70  93 W7        29.86S FOG
COVINGTON      CLOUDY    74  65  73 N9        29.87S
FRANKFORT      PTSUNNY   77  69  76 W5        29.85R THUNDER
$$

KYZ054-064>069-076>088-106>120-032100-
SOUTHEAST KENTUCKY

CITY           SKY/WX    TMP DP  RH WIND       PRES   REMARKS
JACKSON        CLOUDY    73  67  81 VRB3      29.89F
LONDON         PTSUNNY   78  67  68 W12       29.88F
SOMERSET       PTSUNNY   77  68  73 SW10G16   29.89F
MIDDLESBORO    CLOUDY    75  71  87 NE3       29.90F
MONTICELLO     PTCLDY    82  71  69 SW9G17    29.90F
$$




USA.gov is the U.S. government's official web portal to all federal, state and local government web resources and services.